Location: Asheville, NC
(35.6000°N, 82.5500°W)
Time: 03:20:37
(UTC-04:00)

Vanguard 3 - Pass Details

Date: 10 March 2018
Orbit: 508 x 3264 km, 33.3° (Epoch: 17 June)

Event Time Altitude Azimuth Distance (km) Brightness Sun altitude
Rises 12:35:23 0° 269° (W) 6,648 11.8 50.5°
Reaches altitude 10° 12:40:23 10° 269° (W) 5,279 11.4 50.5°
Maximum altitude 12:54:35 79° 186° (S) 1,684 10.1 50.3°
Drops below altitude 10° 13:02:15 10° 100° (E) 3,009 10.2 50.2°
Sets 13:04:22 0° 99° (E) 3,714 10.5 50.1°
